Location: Banios
(43.0451°N, 0.2335°E)
Time: 08:56:30
(UTC+00:00)

Cosmos 1908 - Visible Passes

Search period start: 09 May 2021 00:00
Search period end: 19 May 2021 00:00
Orbit: 510 x 529 km, 82.5° (Epoch: 08 May)

Date Brightness Start Highest point End Pass type
(mag) Time Alt. Az. Time Alt. Az. Time Alt. Az.
09 May 3.4 02:32:40 10° N 02:36:33 72° E 02:38:27 29° SSE visible
10 May 3.6 02:18:59 10° N 02:22:50 61° E 02:24:23 33° SSE visible
11 May 3.9 02:05:19 10° N 02:09:07 51° E 02:10:23 35° SE visible
11 May 5.3 03:43:13 10° WNW 03:44:25 11° W 03:45:26 10° W visible
12 May 4.2 01:51:40 10° N 01:55:24 43° ENE 01:56:24 35° ESE visible
12 May 5.2 03:28:54 10° WNW 03:30:47 13° W 03:31:28 13° W visible
13 May 4.5 01:38:01 10° N 01:41:40 37° ENE 01:42:29 33° ESE visible
13 May 5.0 03:14:49 10° NW 03:17:08 15° W 03:17:33 15° W visible
14 May 4.7 01:24:24 10° NNE 01:27:56 31° ENE 01:28:34 30° E visible
14 May 4.9 03:00:49 10° NW 03:03:28 18° W 03:03:38 18° W visible
15 May 4.9 01:10:49 10° NNE 01:14:10 27° ENE 01:14:42 26° E visible
15 May 4.7 02:46:52 10° NW 02:49:46 21° W 02:49:46 21° W visible
16 May 5.1 00:57:14 10° NNE 01:00:26 23° ENE 01:00:51 23° E visible
16 May 4.6 02:32:59 10° NW 02:35:56 24° W 02:35:56 24° W visible
17 May 5.3 00:43:42 10° NNE 00:46:40 20° ENE 00:47:02 20° E visible
17 May 4.4 02:19:08 10° NNW 02:22:06 27° W 02:22:06 27° W visible
18 May 5.5 00:30:12 10° NNE 00:32:55 18° ENE 00:33:13 18° ENE visible
18 May 4.3 02:05:17 10° NNW 02:08:18 31° WNW 02:08:18 31° WNW visible
